Tiempo cada hora La Pinilla

Hoy, 26 Octubre, Lunes

Tiempo Temperatura Precipitaciones Viento Presión Humedad
00:00 0°C° 0.3 mm 4 mps 631 mmHg 86%
01:00 0°C° 0.1 mm 4 mps 631 mmHg 86%
02:00 0°C° 0.1 mm 4 mps 631 mmHg 86%
03:00 -1°C° 0.1 mm 4 mps 631 mmHg 86%
04:00 -1°C° 0.1 mm 4 mps 632 mmHg 86%
05:00 -1°C° 0.1 mm 5 mps 632 mmHg 86%
06:00 -1°C° 0.1 mm 5 mps 632 mmHg 87%
07:00 -1°C° 0 mm 5 mps 632 mmHg 84%
08:00 -1°C° 0 mm 5 mps 633 mmHg 81%
09:00 -1°C° 0 mm 4 mps 633 mmHg 78%
10:00 0°C° 0 mm 4 mps 634 mmHg 74%
11:00 +1°C° 0 mm 4 mps 634 mmHg 69%
12:00 +3°C° 0 mm 4 mps 635 mmHg 62%
13:00 +4°C° 0 mm 4 mps 635 mmHg 59%
14:00 +4°C° 0 mm 4 mps 635 mmHg 57%
15:00 +5°C° 0 mm 4 mps 635 mmHg 54%
16:00 +2°C° 0 mm 3 mps 635 mmHg 77%
17:00 +2°C° 0 mm 3 mps 634 mmHg 75%
18:00 +2°C° 0 mm 3 mps 634 mmHg 73%
19:00 +2°C° 0 mm 3 mps 635 mmHg 74%
20:00 +1°C° 0 mm 3 mps 635 mmHg 77%
21:00 +2°C° 0 mm 2 mps 635 mmHg 79%
22:00 +1°C° 0 mm 2 mps 635 mmHg 84%
23:00 +1°C° 0 mm 2 mps 635 mmHg 86%

Mañana, 27 Octubre, Martes

Tiempo Temperatura Precipitaciones Viento Presión Humedad
00:00 +1°C° 0 mm 2 mps 635 mmHg 87%
01:00 +1°C° 0 mm 3 mps 634 mmHg 78%
02:00 +1°C° 0 mm 2 mps 634 mmHg 83%
03:00 +1°C° 0 mm 2 mps 634 mmHg 88%
04:00 +1°C° 0 mm 2 mps 634 mmHg 88%
05:00 +1°C° 0 mm 2 mps 634 mmHg 88%
06:00 +1°C° 0 mm 2 mps 634 mmHg 88%
07:00 +1°C° 0 mm 2 mps 634 mmHg 83%
08:00 +2°C° 0 mm 2 mps 635 mmHg 79%
09:00 +2°C° 0 mm 3 mps 635 mmHg 74%
10:00 +4°C° 0 mm 3 mps 635 mmHg 71%
11:00 +5°C° 0 mm 3 mps 636 mmHg 67%
12:00 +7°C° 0 mm 3 mps 636 mmHg 63%
13:00 +7°C° 0 mm 3 mps 636 mmHg 64%
14:00 +8°C° 0 mm 3 mps 636 mmHg 66%
15:00 +8°C° 0 mm 3 mps 635 mmHg 68%
16:00 +7°C° 0 mm 3 mps 635 mmHg 73%
17:00 +6°C° 0 mm 2 mps 635 mmHg 78%
18:00 +5°C° 0 mm 2 mps 635 mmHg 83%
19:00 +5°C° 0 mm 2 mps 635 mmHg 83%
20:00 +5°C° 0 mm 2 mps 635 mmHg 83%
21:00 +5°C° 0 mm 2 mps 636 mmHg 83%
22:00 +5°C° 0 mm 2 mps 635 mmHg 82%
23:00 +6°C° 0 mm 2 mps 635 mmHg 82%

Pasado mañana, 28 Octubre, Miércoles

Tiempo Temperatura Precipitaciones Viento Presión Humedad
00:00 +7°C° 0 mm 1 mps 635 mmHg 81%
01:00 +7°C° 0 mm 1 mps 635 mmHg 83%
02:00 +7°C° 0 mm 1 mps 635 mmHg 86%
03:00 +5°C° 0 mm 2 mps 635 mmHg 88%
04:00 +6°C° 0 mm 2 mps 635 mmHg 88%
05:00 +6°C° 0 mm 2 mps 635 mmHg 88%
06:00 +6°C° 0 mm 2 mps 635 mmHg 89%
07:00 +7°C° 0 mm 2 mps 635 mmHg 86%
08:00 +7°C° 0 mm 3 mps 636 mmHg 83%
09:00 +8°C° 0 mm 3 mps 636 mmHg 80%
10:00 +9°C° 0 mm 3 mps 636 mmHg 77%
11:00 +9°C° 0 mm 3 mps 637 mmHg 74%
12:00 +10°C° 0 mm 3 mps 637 mmHg 71%
13:00 +10°C° 0 mm 3 mps 637 mmHg 69%
14:00 +10°C° 0 mm 3 mps 637 mmHg 68%
15:00 +11°C° 0 mm 3 mps 637 mmHg 66%
16:00 +10°C° 0 mm 2 mps 637 mmHg 72%
17:00 +8°C° 0 mm 2 mps 636 mmHg 78%
18:00 +8°C° 0 mm 1 mps 636 mmHg 84%
19:00 +8°C° 0 mm 1 mps 636 mmHg 85%
20:00 +7°C° 0 mm 1 mps 637 mmHg 86%
21:00 +7°C° 0 mm 1 mps 637 mmHg 88%
22:00 +7°C° 0 mm 1 mps 637 mmHg 88%
23:00 +6°C° 0 mm 1 mps 637 mmHg 89%

29 Octubre, Jueves

Tiempo Temperatura Precipitaciones Viento Presión Humedad
00:00 +6°C° 0 mm 1 mps 637 mmHg 90%
01:00 +5°C° 0 mm 1 mps 636 mmHg 90%
02:00 +5°C° 0 mm 1 mps 636 mmHg 90%
03:00 +4°C° 0 mm 0 mps 636 mmHg 90%
04:00 +3°C° 0 mm 0 mps 636 mmHg 91%
05:00 +4°C° 0 mm 1 mps 636 mmHg 91%
06:00 +4°C° 0 mm 1 mps 636 mmHg 91%
07:00 +5°C° 0 mm 1 mps 637 mmHg 87%
08:00 +7°C° 0 mm 1 mps 638 mmHg 84%
09:00 +8°C° 0 mm 1 mps 638 mmHg 80%
10:00 +9°C° 0 mm 1 mps 639 mmHg 74%
11:00 +11°C° 0 mm 1 mps 639 mmHg 67%
12:00 +12°C° 0 mm 2 mps 639 mmHg 61%
13:00 +12°C° 0 mm 2 mps 639 mmHg 59%
14:00 +13°C° 0 mm 2 mps 639 mmHg 57%
15:00 +13°C° 0 mm 2 mps 639 mmHg 56%
16:00 +11°C° 0 mm 1 mps 638 mmHg 64%
17:00 +10°C° 0 mm 1 mps 638 mmHg 71%
18:00 +8°C° 0 mm 1 mps 637 mmHg 79%
19:00 +7°C° 0 mm 1 mps 637 mmHg 80%
20:00 +7°C° 0 mm 1 mps 637 mmHg 82%
21:00 +7°C° 0 mm 1 mps 638 mmHg 83%
22:00 +6°C° 0 mm 1 mps 637 mmHg 82%
23:00 +6°C° 0 mm 1 mps 637 mmHg 81%

30 Octubre, Viernes

Tiempo Temperatura Precipitaciones Viento Presión Humedad
00:00 +6°C° 0 mm 1 mps 637 mmHg 81%
01:00 +6°C° 0 mm 1 mps 637 mmHg 82%
02:00 +5°C° 0 mm 1 mps 637 mmHg 83%
03:00 +5°C° 0 mm 1 mps 636 mmHg 84%
04:00 +5°C° 0 mm 1 mps 636 mmHg 86%
05:00 +5°C° 0 mm 1 mps 636 mmHg 87%
06:00 +5°C° 0 mm 1 mps 636 mmHg 89%
07:00 +7°C° 0 mm 1 mps 637 mmHg 85%
08:00 +8°C° 0 mm 1 mps 637 mmHg 82%
09:00 +10°C° 0 mm 1 mps 638 mmHg 78%
10:00 +10°C° 0 mm 2 mps 638 mmHg 73%
11:00 +12°C° 0 mm 2 mps 638 mmHg 67%
12:00 +13°C° 0 mm 3 mps 639 mmHg 62%
13:00 +13°C° 0 mm 3 mps 638 mmHg 60%
14:00 +13°C° 0 mm 3 mps 638 mmHg 59%
15:00 +13°C° 0 mm 3 mps 638 mmHg 58%
16:00 +12°C° 0 mm 3 mps 637 mmHg 64%
17:00 +10°C° 0 mm 2 mps 636 mmHg 71%
18:00 +8°C° 0 mm 2 mps 636 mmHg 77%
19:00 +8°C° 0 mm 2 mps 636 mmHg 78%
20:00 +8°C° 0 mm 2 mps 636 mmHg 79%
21:00 +7°C° 0 mm 2 mps 636 mmHg 80%
22:00 +7°C° 0 mm 2 mps 636 mmHg 81%
23:00 +7°C° 0 mm 2 mps 636 mmHg 82%

31 Octubre, Sábado

Tiempo Temperatura Precipitaciones Viento Presión Humedad
00:00 +7°C° 0 mm 2 mps 636 mmHg 83%
01:00 +7°C° 0 mm 1 mps 636 mmHg 85%
02:00 +7°C° 0 mm 1 mps 636 mmHg 86%
03:00 +7°C° 0 mm 1 mps 635 mmHg 88%
04:00 +6°C° 0 mm 1 mps 635 mmHg 89%
05:00 +6°C° 0 mm 1 mps 635 mmHg 90%
06:00 +6°C° 0 mm 1 mps 635 mmHg 91%
Mostrar más

Necesitamos Su Consentimiento

Meteoprog y nuestros Proveedores de Servicios pueden almacenar y acceder a sus datos personales como cookies, identificadores de dispositivo u otras tecnologías similares de su dispositivo y procesar dichos datos para personalizar contenido y anuncios, además de ofrecer funciones de redes sociales y analizar el tráfico.

  • Almacenar y/o acceder a información en su dispositivo

    Se puede almacenar o acceder a cookies, identificadores de dispositivo u otra información de su dispositivo para los fines anteriormente indicados.

  • Anuncios y contenido personalizados, medición de anuncios y contenido, percepciones del público, y desarrollo de productos

    Los anuncios y el contenido pueden personalizarse en base a su perfil. Se pueden añadir más datos para personalizar mejor los anuncios y contenidos. Se puede medir el rendimiento de los anuncios y contenidos. Se puede obtener la percepción sobre el público que ha visto los anuncios y contenidos. Dichos datos pueden usarse para desarrollar o mejorar la experiencia del usuario, sistemas y software.

Al hacer clic en ‘Estoy De Acuerdo’ usted permitirá el uso de las cookies, identificadores de dispositivo, balizas web u otras tecnologías similares indicadas. Su configuración puede cambiarse desde el navegador de su dispositivo.

Para ciertos fines, los intereses legítimos pueden ser considerados por encima del consentimiento. Puede leer más sobre ello en nuestra Política de Privacidad y Cookies.